User: anonymous   Login
Location: Wellington
(41.3000°S, 174.7830°E)
Time: 05:50:47
(UTC+13:00)
Language:

Cosmos 2322 - Orbit

View from above orbital plane
View from above orbital plane
View from above satellite
View from above satellite

Ground track
Ground track

The orbit data is extracted from the following two-line orbital elements,

1 23704U 95058A   19318.16287168  .00000185  00000-0  12388-3 0  9993
2 23704  70.9841 359.3233 0010760 210.0024 150.0483 14.13407222240179
Epoch (UTC): 14 November 2019 03:54:32
Eccentricity: 0.0010760
inclination: 70.9841°
perigee height: 840 km
apogee height: 855 km
right ascension of ascending node: 359.3233°
argument of perigee: 210.0024°
revolutions per day: 14.13407222
mean anomaly at epoch: 150.0483°
orbit number at epoch: 24017

The dashed part of the orbit path shows where the satellite is in the earth's shadow,  

DLR